Regional Weather Roundup
Issued by NWS Bismarck, ND

Home | Current Version | Previous Version | Text Only | Print | Product List | Glossary On
Versions: 1 2 3 4 5 6 7 8 9 10 11 12 13 14 15 16 17 18 19 20 21 22 23 24 25 26 27 28 29 30 31 32 33 34 35 36 37 38 39 40 41 42 43 44 45 46 47 48 49 50
000
ASUS43 KBIS 241601
RWRBIS

NWR BROADCAST TEXT
NATIONAL WEATHER SERVICE BISMARCK ND
1100 AM CDT SUN MAY 24 2015

NOTE: "FAIR" INDICATES FEW OR NO CLOUDS BELOW 12,000 FEET WITH NO
SIGNIFICANT WEATHER AND/OR OBSTRUCTIONS TO VISIBILITY.


CITY           SKY/WX    TMP DP  RH WIND       PRES   REMARKS
WILLISTON      MOSUNNY   68  47  46 E3        30.04F
MINOT          SUNNY     67  47  48 E7        30.04F
MINOT AFB      MOSUNNY   71  49  45 SE6       30.03F
BISMARCK       CLOUDY    65  52  62 E12       30.02F
DICKINSON      CLOUDY    58  51  78 E10       30.02F
GARRISON         N/A     63  49  60 SE5       30.04F
HETTINGER ARPT LGT RAIN  54  52  93 E12       30.02F FOG
JAMESTOWN      PTSUNNY   67  50  54 NE10      30.02F
CARRINGTON     FAIR      64  50  59 E7        30.05F
HAZEN          PTSUNNY   63  52  67 NE8       30.04F
OAKES            N/A     63  52  67 E14       29.99F
STANLEY        FAIR      66  50  55 SE6G14    30.06F
$$

CITY           SKY/WX    TMP DP  RH WIND       PRES   REMARKS
GRAND FORKS    PTSUNNY   70  47  43 SE6       30.04F
GRAND FORKS AF PTSUNNY   70  47  44 SE7       30.04F
DEVILS LAKE    SUNNY     68  46  45 SE7       30.04S
FARGO          CLOUDY    67  48  50 E12       30.02F
CAVALIER       FAIR      70  48  46 SE5       30.04F
GRAFTON        FAIR      70  48  46 SE3G12    30.05F
LANGDON        FAIR      75  41  29 SE13      30.05F
ROLLA            N/A     72  36  26 SE9       30.06F
WALHALLA         N/A     73  45  35 SE3       30.04F
$$

CITY           SKY/WX    TMP DP  RH WIND       PRES   REMARKS
ABERDEEN       CLOUDY    64  52  64 NE8       29.96F
MOBRIDGE       CLOUDY    65  50  58 E16       29.94F
RAPID CITY     RAIN      53  52  96 E13       29.92F FOG
GLASGOW        PTSUNNY   60  45  57 CALM      30.05F
SIDNEY         SUNNY     66  46  48 E6        30.04F
WOLF POINT     MOSUNNY   66  44  45 E7        30.05F
GLENDIVE       PTSUNNY   59  48  67 NE9       30.05F
MILES CITY     PTSUNNY   59  48  67 NE12      30.02F
BAKER          CLOUDY    54  49  83 E14       30.03F
$$

CITY           SKY/WX    TMP DP  RH WIND       PRES   REMARKS
BILLINGS       CLOUDY    50  48  93 NE8       30.04S
GREAT FALLS    CLOUDY    53  47  79 E6        30.09F
$$



USA.gov is the U.S. government's official web portal to all federal, state and local government web resources and services.